Torna al catalogo

BEIDOU 3M4

AttivoNavigazioneMEO
NORAD 43108·PAYLOAD·🇨🇳 China

Lanciato Jan 11, 2018 da Xichang Satellite Launch Center

Loading…

Prossimi Passaggi (prossime 24 ore)

TLE

AggiornatoSource: Space-Track

Epoca: Sep 13, 2026, 21:25 UTC

1 43108U 18003B   26256.89237622 -.00000062  00000-0  00000-0 0  9997
2 43108  54.2382 299.1955 0004307 262.2067  97.8053  1.86230868 59010

Traccia BEIDOU 3M4 in tempo reale con AllMySat

Download on the App Store